Augusta, GA

9:42 AM EDT on September 20, 2017 (GMT -0400)
Daniel

Weather History for KDNL - December, 2012

Change the Weather History Date:

Sunday, December 23, 2012

  Actual Average Record
Temperature  
Mean Temperature 49 °F -  
Max Temperature 59 °F 52 °F 71 °F (2006)
Min Temperature 39 °F 35 °F 25 °F (2000)
Degree Days  
Heating Degree Days 16    
Month to date heating degree days 214  
Moisture  
Dew Point 22 °F    
Average Humidity 35    
Maximum Humidity 42    
Minimum Humidity 25    
Precipitation  
Precipitation 0.00 in - - ()
Month to date precipitation 1.68  
Year to date precipitation 41.93  
Sea Level Pressure  
Sea Level Pressure 30.14 in    
Wind  
Wind Speed 5 mph (WSW)    
Max Wind Speed 12 mph    
Max Gust Speed 16 mph    
Visibility 10 miles    
Events      
Averages and records for this station are not official NWS values.
T = Trace of Precipitation, MM = Missing Value Source: NWS Daily Summary

Daily Weather History Graph

Daily Weather History Graph

Search for Another Location

Airport or City:

Trip Planner

Search our weather history database for the weather conditions in past years. The results will help you decide how hot, cold, wet, or windy it might be!

Date:

Astronomy

Dec. 23, 2012 Rise Set
Actual Time 7:29 AM EST 5:25 PM EST
Civil Twilight 7:01 AM EST 5:53 PM EST
Nautical Twilight 6:30 AM EST 6:24 PM EST
Astronomical Twilight 6:00 AM EST 6:54 PM EST
Moon 2:10 PM EST (12/23) 3:17 AM EST (12/23)
Length of Visible Light 10h 51m
Length of Day
9h 56m
Waxing Gibbous, 81% of the Moon is Illuminated
Dec 23
Waxing Gibbous
Dec 28
Full
Jan 4
Last Quarter
Jan 11
New
Jan 18
First Quarter

Hourly Weather History & Observations

Time (EST) Temp. Windchill Dew Point Humidity Pressure Visibility Wind Dir Wind Speed Gust Speed Precip Events Conditions
12:53 AM 43.0 °F 38.2 °F 15.1 °F 32% 30.16 in 10.0 mi West 8.1 mph - N/A   Clear
1:53 AM 42.1 °F 38.4 °F 15.1 °F 34% 30.16 in 10.0 mi WNW 5.8 mph - N/A   Clear
2:53 AM 41.0 °F 37.1 °F 15.1 °F 35% 30.15 in 10.0 mi WNW 5.8 mph - N/A   Clear
3:53 AM 41.0 °F 39.0 °F 15.1 °F 35% 30.15 in 10.0 mi WNW 3.5 mph - N/A   Clear
4:53 AM 41.0 °F 37.1 °F 14.0 °F 33% 30.17 in 10.0 mi West 5.8 mph - N/A   Clear
5:53 AM 39.9 °F 36.7 °F 15.1 °F 36% 30.16 in 10.0 mi WNW 4.6 mph - N/A   Clear
6:53 AM 41.0 °F 37.1 °F 16.0 °F 36% 30.18 in 10.0 mi WNW 5.8 mph - N/A   Clear
7:53 AM 42.1 °F 39.2 °F 17.1 °F 37% 30.19 in 10.0 mi West 4.6 mph - N/A   Clear
8:53 AM 43.0 °F 41.3 °F 19.9 °F 40% 30.20 in 10.0 mi West 3.5 mph - N/A   Clear
9:53 AM 46.9 °F - 21.0 °F 36% 30.21 in 10.0 mi West 6.9 mph - N/A   Clear
10:53 AM 52.0 °F - 23.0 °F 32% 30.20 in 10.0 mi WNW 10.4 mph - N/A   Clear
11:53 AM 55.9 °F - 23.0 °F 28% 30.17 in 10.0 mi WNW 8.1 mph - N/A   Clear
12:53 PM 57.9 °F - 23.0 °F 26% 30.14 in 10.0 mi Variable 4.6 mph - N/A   Clear
1:53 PM 57.9 °F - 25.0 °F 28% 30.12 in 10.0 mi SW 5.8 mph - N/A   Clear
2:53 PM 57.9 °F - 25.0 °F 28% 30.11 in 10.0 mi SSW 8.1 mph - N/A   Clear
3:53 PM 57.9 °F - 25.0 °F 28% 30.11 in 10.0 mi SW 4.6 mph - N/A   Clear
4:53 PM 55.9 °F - 25.0 °F 30% 30.09 in 10.0 mi SSW 10.4 mph - N/A   Clear
5:53 PM 54.0 °F - 26.1 °F 34% 30.10 in 10.0 mi SSW 5.8 mph - N/A   Partly Cloudy
6:53 PM 52.0 °F - 27.0 °F 38% 30.10 in 10.0 mi SW 5.8 mph - N/A   Partly Cloudy
7:53 PM 51.1 °F - 28.9 °F 43% 30.11 in 10.0 mi SW 5.8 mph - N/A   Scattered Clouds
8:53 PM 50.0 °F - 28.9 °F 44% 30.12 in 10.0 mi WSW 3.5 mph - N/A   Scattered Clouds
9:53 PM 50.0 °F - 28.9 °F 44% 30.12 in 10.0 mi Calm Calm - N/A   Overcast
10:53 PM 51.1 °F - 28.9 °F 43% 30.12 in 10.0 mi Calm Calm - N/A   Overcast
11:53 PM 51.1 °F - 30.0 °F 44% 30.11 in 10.0 mi SW 3.5 mph - N/A   Overcast